GFSGL_500_spd_159.txt.gz
Wind_Speed
23 21 22 22 21 19 20 17 15 14 15 14 13 12 12 12 14 14 15 14 14 14 14 15 14 12 11 9 8 7 6 7 9 10 13 15 13 11 11 10 10 10 11
24 24 25 22 23 21 21 19 16 15 14 13 12 11 12 12 12 12 11 12 11 12 13 14 12 11 11 12 11 10 9 10 12 13 14 16 15 14 13 14 14 14 14
25 26 25 25 23 23 22 20 19 18 17 15 14 15 15 14 15 14 12 12 13 12 13 14 13 14 14 14 13 14 13 13 14 15 14 15 17 17 17 17 16 16 17
28 28 27 27 27 27 25 22 21 21 18 18 19 17 16 14 15 15 15 14 15 15 16 16 15 14 15 15 15 15 15 15 16 16 17 17 16 17 19 20 21 24 24
31 30 28 32 31 30 29 28 26 24 24 23 20 18 17 16 16 16 15 15 17 17 17 17 18 18 18 18 17 18 18 18 18 19 20 20 20 20 22 25 26 26 27
28 33 26 33 35 29 31 31 29 28 26 24 23 22 21 21 21 20 18 18 19 20 20 20 22 22 22 22 22 21 20 21 22 20 22 24 26 27 28 29 29 30 30
35 29 35 27 40 39 33 31 30 30 29 28 27 26 26 26 25 24 22 22 22 21 23 25 26 26 25 23 20 23 24 24 24 25 25 24 26 29 31 33 34 34 35
35 34 34 37 32 31 30 31 30 30 31 31 31 31 30 29 28 28 27 26 24 25 27 27 27 29 28 28 29 30 26 24 25 27 27 28 29 33 37 39 39 40 41
28 31 37 36 34 30 30 30 32 31 32 32 35 35 33 32 33 31 31 29 28 29 29 27 28 30 31 35 30 24 25 27 30 31 32 33 35 37 40 38 36 36 34
30 31 32 37 40 38 36 38 35 35 32 33 33 37 36 35 35 34 33 32 32 29 29 29 32 34 30 28 25 22 25 29 30 33 35 37 40 41 37 33 33 32 31
31 31 33 35 34 36 40 40 40 37 35 36 40 40 41 40 40 37 33 33 33 32 33 33 36 31 29 28 29 32 33 35 32 37 38 40 40 38 36 35 34 35 35
27 28 30 32 31 35 32 35 39 40 41 39 40 41 41 41 39 37 36 34 34 33 32 33 35 37 36 35 35 35 36 34 28 38 43 44 41 39 38 38 39 39 39
29 31 27 27 31 33 35 36 36 44 45 42 37 42 38 38 36 40 42 41 39 38 38 38 39 40 40 43 44 44 42 37 40 43 40 38 38 40 38 38 40 43 44
32 30 28 27 24 28 38 35 36 32 42 37 41 49 47 41 41 43 47 46 47 42 41 39 41 43 44 45 43 40 40 42 40 36 33 32 34 36 39 40 43 44 46
36 31 28 25 25 26 31 32 35 37 43 33 38 47 43 42 39 43 45 45 42 44 45 53 52 48 48 47 44 41 41 37 28 29 33 36 39 40 41 44 45 46 48
36 36 32 24 25 27 24 26 26 28 30 33 36 36 38 34 40 44 44 42 45 47 47 51 49 45 47 49 49 44 38 29 28 33 35 38 40 42 44 46 49 50 51
30 25 25 22 25 24 18 24 17 19 25 29 26 35 36 33 37 48 52 47 40 46 46 51 50 47 41 32 28 25 25 27 30 33 36 40 43 46 46 47 49 51 52
31 27 24 27 25 21 21 25 27 23 26 28 31 32 35 36 35 34 34 29 32 24 24 23 20 17 16 18 21 25 28 32 36 38 40 42 44 46 48 50 50 51 53
27 25 25 20 18 20 21 20 23 25 27 28 32 34 32 29 26 23 16 12 12 14 16 17 17 18 21 23 27 30 32 34 37 40 43 45 47 47 48 50 51 53 56
27 28 21 20 20 23 22 24 24 21 19 16 14 12 12 11 11 11 12 13 16 16 16 17 20 22 25 27 30 32 35 38 42 44 46 46 47 48 49 51 54 56 58
24 25 22 15 22 21 27 22 19 17 14 12 12 13 13 13 12 11 11 12 15 17 19 21 23 25 27 30 33 36 39 42 43 43 44 45 46 49 53 55 57 58 59
25 23 22 24 30 29 23 14 12 11 11 11 10 11 12 14 14 15 15 15 17 20 22 24 27 29 31 34 35 34 36 38 40 43 46 49 52 54 55 57 58 59 59
25 18 19 19 14 12 16 18 16 13 11 11 12 13 13 14 16 16 17 19 21 23 24 25 27 28 29 31 33 35 38 42 45 49 51 53 55 57 58 58 58 59 58
19 18 16 17 18 16 15 10 7 6 7 10 12 15 16 17 18 18 18 19 21 23 24 26 27 29 31 34 37 40 43 47 49 51 53 54 54 53 54 56 57 57 50
12 11 13 16 16 13 9 6 7 10 13 14 15 15 16 16 16 19 21 23 24 25 26 27 29 32 36 38 40 43 45 48 50 51 50 49 50 51 53 52 50 41 33
18 17 15 12 10 8 8 7 7 9 11 13 14 15 16 18 20 22 24 24 25 27 29 32 34 35 38 42 44 46 48 49 47 44 46 47 49 49 46 40 31 29 32

GFSGL_500_spd_162.txt.gz
Wind_Speed
21 21 19 18 18 21 21 18 17 17 20 21 20 20 19 18 19 20 20 19 18 18 17 17 17 16 15 12 10 11 10 10 11 11 13 12 11 10 9 10 11 12 13
24 22 23 20 19 20 21 19 17 18 18 17 16 16 16 15 15 17 17 16 17 18 18 18 18 18 17 15 15 13 13 13 13 13 14 15 14 12 11 12 12 13 14
26 24 23 24 23 23 24 21 20 19 19 18 17 16 15 14 14 14 15 15 16 16 17 17 18 18 18 17 16 15 15 16 16 17 15 16 17 15 16 15 16 17 17
28 27 25 25 27 27 26 23 22 21 19 19 19 19 18 16 16 15 17 18 18 17 18 18 19 18 18 18 18 19 19 19 19 19 18 18 18 19 19 20 21 23 25
26 25 27 30 29 30 29 27 26 24 23 23 21 21 21 20 19 19 20 19 19 20 19 19 20 20 20 20 20 21 21 22 22 21 20 19 21 21 21 24 27 28 29
26 27 30 33 32 32 32 33 30 27 26 25 23 24 24 24 22 22 21 20 21 21 21 21 21 22 22 22 23 25 26 26 25 22 22 24 23 24 25 24 26 30 32
33 33 32 33 31 32 33 31 30 29 29 28 27 27 27 26 25 25 24 23 24 24 23 24 25 25 27 26 27 28 28 23 25 25 26 27 28 28 29 29 31 33 33
31 32 35 31 35 29 31 39 36 31 34 32 31 30 30 30 29 28 27 26 27 28 27 28 29 29 29 29 29 30 29 30 28 31 28 27 32 31 32 33 36 38 42
30 30 35 36 33 35 38 35 37 37 33 32 33 32 30 30 30 33 32 30 32 32 31 31 31 30 29 29 31 33 33 36 32 23 26 30 32 35 37 37 39 42 42
33 31 30 32 33 36 37 36 33 32 33 33 32 34 34 33 33 34 35 35 36 34 34 32 33 32 31 30 32 34 37 31 24 24 30 35 38 38 36 38 39 42 40
32 33 33 34 35 32 34 38 39 36 34 35 34 35 35 34 34 34 36 39 40 38 36 36 36 35 34 35 36 34 31 31 31 30 32 34 35 40 39 44 46 43 41
36 34 34 34 36 37 36 36 39 40 38 39 39 38 38 37 37 40 41 40 42 41 42 40 37 37 36 35 35 39 42 41 39 42 45 45 41 46 48 48 44 41 40
36 33 32 31 32 33 36 39 39 38 37 39 37 37 41 42 40 41 41 39 37 38 39 40 40 40 40 41 42 44 44 45 43 45 44 45 44 47 48 41 36 36 38
34 32 32 29 27 27 26 34 38 38 36 38 36 37 38 41 33 39 38 40 39 41 40 43 48 48 49 47 48 45 45 47 47 41 44 44 50 48 35 32 35 37 38
33 32 33 32 28 25 22 25 32 38 39 39 37 33 31 34 38 42 45 48 52 48 47 47 46 48 51 50 50 53 57 58 53 50 48 46 38 32 30 33 37 40 44
29 31 32 33 34 31 29 26 29 29 30 33 36 35 35 37 38 48 46 49 43 38 40 37 41 49 53 51 51 56 54 55 50 39 33 28 28 30 33 37 42 45 48
31 31 31 33 34 33 33 35 34 26 25 27 29 34 34 37 42 45 44 41 40 40 44 44 38 34 35 42 48 45 40 32 22 20 24 29 33 36 39 42 45 47 49
27 28 28 27 27 28 28 28 26 25 25 20 19 20 25 25 25 28 27 28 29 28 33 33 32 34 37 35 30 27 23 22 24 27 31 34 36 38 42 45 46 47 47
26 28 27 29 31 30 28 28 27 28 30 32 31 27 28 25 29 31 32 32 33 31 27 26 28 26 21 20 19 20 23 25 27 30 33 36 38 40 42 43 44 47 50
29 29 31 29 28 29 26 25 28 24 27 28 26 32 33 31 27 21 18 14 13 13 14 15 16 17 18 19 21 22 24 28 30 33 36 36 37 39 42 45 49 52 55
30 31 30 28 27 27 28 29 28 25 23 19 17 16 16 14 12 13 14 15 14 15 16 18 19 19 19 21 23 26 29 31 30 31 33 35 39 44 47 50 53 55 58
26 31 34 32 32 28 29 29 31 30 21 18 16 16 16 14 14 13 13 14 15 17 19 20 21 22 23 24 25 26 27 29 32 35 38 41 44 48 51 54 56 56 54
41 40 34 32 30 27 28 33 26 22 17 15 13 12 11 12 12 13 14 16 18 20 21 20 20 21 22 24 26 28 31 34 37 40 42 45 48 52 54 52 50 51 53
44 38 29 25 20 19 19 16 12 15 17 19 17 15 10 9 14 17 18 18 17 19 20 21 23 24 25 27 29 31 34 37 40 43 46 50 52 50 46 46 48 51 50
29 31 27 21 18 17 15 13 12 7 6 6 9 12 14 15 15 16 17 19 20 22 22 25 25 26 26 29 32 35 39 42 44 47 51 49 44 42 45 46 47 46 40
20 19 19 18 15 15 15 14 12 11 11 11 11 12 13 13 15 17 19 21 21 23 23 23 24 27 29 32 36 39 42 45 48 49 46 41 41 44 44 44 41 33 28

GFSGL_500_spd_165.txt.gz
Wind_Speed
22 22 20 18 17 19 19 18 17 19 18 19 20 20 19 19 19 20 19 18 18 18 17 18 18 17 17 15 13 11 12 13 12 11 11 13 13 10 11 11 11 13 13
24 22 22 20 18 17 20 20 18 16 17 19 21 21 21 20 20 22 21 21 21 20 20 20 20 19 18 17 17 15 14 15 15 14 15 16 16 14 13 15 15 14 15
24 24 22 20 19 20 20 20 18 17 17 17 18 19 19 18 18 18 17 16 17 17 16 17 18 19 19 19 19 18 17 17 17 17 18 19 19 19 18 18 19 15 15
24 26 25 24 21 20 20 20 19 19 18 17 18 17 16 16 17 18 17 16 16 16 16 18 19 18 20 20 21 20 19 20 20 21 21 22 23 23 23 20 19 21 21
27 26 27 27 24 22 23 23 23 22 23 21 19 20 20 20 20 19 19 19 18 18 19 19 19 21 21 21 22 22 22 23 24 23 25 27 26 24 25 20 20 24 26
31 29 28 26 26 25 25 26 25 24 25 25 23 23 22 22 22 23 22 21 21 21 21 21 21 22 22 23 24 24 24 25 27 28 30 33 33 25 26 25 27 27 29
29 36 31 30 27 26 30 29 27 29 27 26 26 25 25 26 25 26 26 25 25 25 25 25 24 25 25 25 27 26 28 29 31 31 30 31 33 31 30 29 30 31 31
36 32 33 29 31 27 30 31 30 30 30 28 29 28 27 27 27 28 29 28 27 28 30 28 27 29 28 29 28 28 30 29 31 30 31 35 33 33 31 32 31 33 37
27 35 38 36 30 32 29 32 28 26 27 31 32 31 33 31 29 31 32 31 29 30 33 32 32 31 31 32 31 31 31 31 32 33 34 34 30 28 30 34 37 39 39
32 32 32 31 31 33 35 36 34 34 33 31 34 37 35 33 32 33 33 32 32 33 33 34 34 35 35 35 33 34 33 32 34 35 33 29 30 32 34 37 41 40 40
34 33 37 38 36 34 37 38 36 37 36 34 33 33 34 34 31 33 33 34 35 33 35 35 37 39 38 39 38 36 37 37 38 38 37 41 42 41 43 44 44 44 47
39 37 35 35 38 37 38 40 38 34 34 33 35 34 33 32 33 34 36 37 39 36 38 38 38 39 38 42 43 39 42 43 43 42 42 44 45 42 46 45 45 47 46
31 36 39 36 34 34 35 39 39 38 36 36 41 41 38 38 39 40 37 36 39 42 42 41 39 37 36 36 43 44 44 47 49 49 50 51 48 49 49 49 53 53 46
28 31 34 36 39 36 31 33 36 37 38 39 39 40 41 42 41 37 38 39 42 32 34 38 39 41 41 43 43 44 50 52 52 54 50 49 50 57 55 54 51 35 28
26 28 32 32 35 34 30 27 24 29 29 33 38 40 42 38 38 38 33 34 37 36 45 48 46 51 51 48 47 43 43 47 47 47 51 52 49 46 43 39 27 30 33
28 28 27 31 33 32 29 28 25 24 19 20 26 33 40 42 43 39 41 38 47 44 51 49 41 44 39 33 36 40 41 45 50 48 50 47 41 30 26 30 33 35 37
28 29 27 28 29 32 30 27 28 28 30 28 26 28 33 36 40 42 45 42 44 47 45 39 38 30 30 31 29 33 36 41 42 45 42 32 27 28 29 31 33 36 38
24 25 27 30 30 29 29 30 30 30 26 26 25 27 30 30 30 25 31 30 30 32 31 30 30 32 36 38 34 30 30 28 25 24 26 24 26 29 31 34 34 37 40
21 24 27 31 32 31 27 22 22 24 27 26 24 27 28 30 26 21 28 31 36 26 29 34 35 34 28 17 17 21 23 23 22 23 25 27 29 30 32 36 38 40 43
27 25 29 30 30 28 24 25 26 26 26 26 26 28 33 32 24 29 31 30 32 26 18 17 16 16 15 15 17 19 21 23 25 26 26 26 28 32 35 38 40 44 48
28 28 29 30 29 28 30 27 27 28 29 27 27 27 29 26 30 32 29 21 13 13 14 15 15 15 16 18 21 22 22 22 23 24 26 29 33 36 39 42 46 51 56
30 31 29 29 31 30 27 26 26 29 27 26 24 23 23 24 23 20 17 15 14 15 15 16 17 19 20 20 20 21 22 24 25 28 31 34 37 40 43 48 52 56 57
27 31 27 31 33 32 31 30 37 33 30 28 24 20 18 18 17 15 15 14 14 14 16 17 18 18 20 22 23 24 25 26 28 32 35 37 40 44 48 53 55 54 51
33 36 30 41 40 37 38 37 39 37 39 26 21 20 18 17 16 15 13 13 15 17 18 20 21 22 22 24 26 26 27 29 31 35 39 42 45 49 53 52 49 48 49
29 40 39 34 47 42 37 34 35 33 26 18 19 21 19 15 12 13 14 15 16 17 19 21 23 24 25 24 25 25 27 31 35 38 41 45 49 51 50 48 47 47 46
32 30 30 38 38 29 24 18 15 14 13 11 9 9 9 10 10 11 13 16 17 19 20 22 23 23 23 24 25 30 33 36 39 43 45 47 49 48 47 45 44 43 41

GFSGL_500_spd_168.txt.gz
Wind_Speed
14 17 16 16 14 14 17 17 16 16 16 20 20 16 15 16 16 17 16 15 15 16 14 15 15 14 14 13 12 11 11 13 15 13 13 14 15 13 14 13 12 13 14
19 18 19 17 16 17 19 18 15 15 19 23 21 11 17 16 18 18 17 19 19 19 17 18 18 16 15 15 13 13 13 15 16 17 17 18 18 20 20 14 14 15 21
18 20 18 20 19 19 20 20 18 16 16 16 16 17 15 16 18 17 18 17 17 16 19 14 16 15 14 15 15 15 17 17 17 18 20 20 22 21 23 24 24 22 21
21 21 19 23 22 20 20 20 19 17 15 15 14 13 14 15 16 15 15 15 15 15 15 16 15 15 16 16 17 17 19 18 19 20 21 22 24 24 26 29 29 28 23
22 23 26 27 24 21 21 21 21 19 19 18 16 16 17 17 17 17 17 17 16 16 16 16 15 17 18 18 19 19 20 21 23 23 24 26 27 29 31 32 32 30 23
29 32 25 21 26 21 22 23 22 21 22 22 21 21 21 21 21 20 21 20 19 18 19 19 19 19 21 20 21 21 22 23 25 26 26 29 30 31 29 32 28 27 28
29 28 24 28 24 21 26 25 24 23 24 23 24 26 25 24 25 24 24 24 23 21 22 22 22 21 23 24 26 23 25 26 28 28 29 30 31 32 31 34 34 33 28
30 25 25 31 32 30 28 24 24 28 27 27 27 27 27 27 26 27 28 27 24 25 25 25 25 27 24 27 27 28 28 30 31 29 30 31 31 33 34 38 34 28 30
33 30 26 36 33 36 33 31 27 27 30 29 28 29 28 28 30 29 30 31 27 26 27 27 29 27 29 30 28 30 29 33 34 33 32 32 33 33 33 30 31 35 38
26 35 33 32 29 35 35 34 33 30 32 28 27 26 27 30 32 36 35 33 29 28 29 29 32 30 31 32 33 33 35 33 36 36 36 36 37 38 37 38 40 42 42
29 29 30 31 30 34 37 36 35 33 32 31 32 35 32 31 33 36 33 33 32 29 28 29 32 32 31 32 35 34 35 33 35 40 41 42 45 46 44 43 43 45 43
27 30 33 31 32 34 35 36 34 32 34 36 35 35 37 38 35 36 34 33 32 29 29 31 34 34 34 37 38 36 39 38 40 41 44 45 46 46 49 50 52 51 53
28 28 29 32 36 38 34 32 33 34 34 36 36 35 36 37 39 40 37 32 34 35 35 34 33 33 33 33 36 39 39 40 40 42 40 45 52 52 52 53 52 51 52
27 28 27 26 31 35 36 35 33 32 31 34 37 40 42 42 41 40 40 35 37 37 35 34 37 37 32 37 44 42 43 50 51 46 42 41 41 43 43 48 53 52 47
25 26 26 25 26 29 31 34 35 34 32 30 32 36 35 40 35 35 31 35 38 36 35 39 41 34 40 39 45 43 40 41 40 31 37 37 43 45 48 39 36 36 30
25 25 26 27 27 28 30 32 32 31 29 28 26 27 27 26 29 33 36 38 37 36 38 45 40 32 41 43 43 36 26 30 28 35 36 40 39 40 30 30 31 28 28
26 26 25 26 28 28 28 30 29 31 31 30 30 27 25 25 25 28 32 38 41 44 48 44 49 47 43 36 32 30 30 33 36 37 31 26 25 29 24 24 25 27 28
25 26 25 27 26 28 29 29 31 32 31 32 32 32 32 32 27 28 31 37 40 42 42 43 43 41 32 28 28 32 36 31 23 22 23 21 21 23 24 24 27 30 32
25 26 26 27 27 27 30 31 29 28 28 29 30 31 31 31 31 29 25 26 30 43 38 32 44 27 28 30 27 26 29 23 18 19 21 22 21 21 24 27 29 32 35
25 27 28 29 28 29 29 30 28 25 25 25 24 24 27 26 29 24 22 29 25 33 32 29 25 16 10 11 12 12 13 14 15 17 17 19 21 23 26 30 33 36 40
28 30 29 28 29 28 29 27 25 22 23 24 23 23 22 22 23 24 27 22 26 34 35 26 14 10 11 13 14 15 15 15 17 19 21 21 23 27 31 34 38 42 46
28 29 29 27 27 27 28 31 23 26 22 22 21 22 22 20 21 24 26 28 23 14 10 9 10 11 12 12 13 15 17 18 20 21 21 25 27 30 34 37 41 46 51
28 27 27 26 23 28 27 31 30 26 21 25 24 26 25 20 19 19 15 11 10 8 8 10 13 13 14 16 18 19 20 23 23 24 26 28 32 35 39 43 47 51 53
28 28 28 30 29 25 29 28 27 28 29 26 24 30 26 22 18 14 11 11 12 15 12 12 13 15 18 19 22 23 23 23 25 25 29 32 37 41 44 47 51 53 51
27 26 28 31 30 26 35 34 30 31 34 33 34 29 22 22 23 21 14 11 12 11 11 13 15 16 18 21 20 23 24 23 27 31 34 38 42 44 48 51 52 52 52
24 27 31 35 37 32 30 37 38 41 45 36 34 20 13 11 9 9 10 11 10 11 13 15 16 18 20 24 25 26 28 30 32 36 39 41 45 48 51 51 51 48 47

GFSGL_500_spd_171.txt.gz
Wind_Speed
15 14 14 12 10 11 13 13 11 14 14 11 13 11 14 17 15 13 10 10 9 8 9 12 12 13 14 13 8 7 10 13 14 10 12 12 12 12 16 17 17 24 13
14 15 18 16 14 15 16 16 15 14 14 19 11 14 17 15 16 13 11 12 11 11 13 12 13 16 13 13 10 7 10 11 14 14 11 13 15 17 16 17 21 25 23
29 21 22 22 18 18 17 16 16 15 13 12 14 15 17 17 18 16 12 13 11 11 10 10 11 12 11 12 10 9 10 11 13 14 15 15 15 17 19 19 22 26 27
21 30 23 25 20 19 19 19 17 15 15 14 14 12 14 15 14 12 10 12 10 9 11 11 11 12 12 11 11 11 12 14 15 16 16 18 19 20 21 22 24 26 25
24 23 29 27 26 23 20 21 20 19 20 19 17 15 14 13 12 11 12 14 13 12 13 13 12 13 15 13 13 14 15 16 17 17 18 20 22 23 26 26 24 25 25
19 23 29 27 26 24 26 23 21 22 22 20 21 18 15 15 16 16 17 18 16 16 17 16 15 15 15 16 16 16 17 18 19 21 23 24 25 26 24 25 25 27 29
22 23 28 27 29 33 25 25 24 25 24 22 23 22 20 21 22 21 21 21 19 21 20 20 21 18 17 19 20 19 20 22 23 23 25 26 27 28 29 29 29 30 32
26 24 24 27 19 35 27 24 25 27 26 25 24 24 23 23 25 24 24 25 24 22 22 23 23 23 21 20 22 20 22 24 24 26 27 28 29 30 30 31 30 30 30
23 24 22 23 22 24 28 26 26 26 25 23 26 27 26 28 28 27 26 27 27 25 26 27 25 27 24 26 23 23 25 27 27 29 30 32 34 32 33 33 34 35 38
18 20 23 21 19 20 30 30 31 29 29 28 25 29 28 29 31 30 30 31 30 30 30 29 28 30 27 28 27 26 26 27 29 32 31 35 35 36 39 39 39 41 42
22 18 19 23 26 28 25 33 34 34 32 30 30 32 31 29 30 30 31 32 33 35 33 29 30 31 27 27 27 29 29 31 33 34 36 38 40 39 38 41 41 42 45
23 24 20 20 21 23 25 27 30 31 36 36 35 34 35 35 36 39 39 37 36 36 35 31 32 29 27 30 32 30 31 31 32 36 40 37 38 41 44 46 42 44 41
26 24 24 21 20 22 26 27 28 30 32 35 36 34 38 40 39 41 40 41 41 39 37 34 32 30 30 33 33 32 26 28 29 33 37 39 38 38 37 30 38 46 44
27 26 25 23 23 22 23 26 31 33 32 32 34 36 36 35 39 41 42 39 41 40 36 40 35 32 31 33 33 34 34 35 35 37 37 31 33 30 37 30 33 41 38
25 25 24 21 21 22 22 23 27 30 31 32 30 30 30 31 31 33 37 39 34 26 31 26 30 30 29 33 38 39 36 35 39 35 29 24 26 36 35 31 31 25 28
25 25 22 21 20 22 23 24 25 26 28 30 31 31 31 30 29 28 29 30 29 30 31 32 33 32 29 35 29 32 35 37 31 25 28 30 30 31 28 27 23 18 18
25 26 24 24 24 22 24 26 27 27 28 28 28 28 29 30 26 23 25 25 25 26 34 37 36 33 34 43 47 43 36 27 24 29 33 25 17 16 16 17 17 16 19
27 27 25 26 25 24 24 25 28 28 27 29 29 29 30 32 32 32 29 29 28 29 32 35 37 42 50 45 35 38 21 20 27 29 17 11 14 17 17 15 18 21 22
27 26 25 25 24 24 25 24 26 28 28 27 29 30 32 32 34 35 34 34 36 33 30 34 38 38 34 38 29 13 8 15 14 12 13 16 17 15 16 17 19 22 26
25 26 26 26 26 26 25 26 27 27 29 29 28 28 29 30 30 33 34 33 30 30 28 26 29 27 22 10 4 3 9 11 13 14 14 15 15 15 17 20 23 26 29
26 28 27 27 25 26 25 25 27 27 27 26 25 27 27 26 24 21 21 26 19 25 21 22 18 19 14 4 5 8 9 10 11 13 14 16 16 18 21 24 27 31 34
25 26 27 26 25 24 24 24 24 23 26 23 21 20 18 19 17 15 15 14 18 17 19 8 2 2 5 7 8 8 10 11 13 16 16 16 18 20 23 27 31 35 41
25 24 25 23 23 22 23 23 22 22 22 19 19 17 18 17 18 15 13 15 13 9 9 8 7 8 7 7 7 8 9 10 14 15 16 18 22 26 30 32 35 40 44
26 24 23 22 23 24 23 24 22 21 24 21 22 23 17 17 21 20 15 15 14 15 15 10 9 9 7 7 8 11 14 16 17 19 20 23 26 31 33 36 40 45 50
28 27 25 23 18 27 31 34 28 24 19 19 18 17 20 27 28 22 16 16 15 11 10 8 7 8 8 11 13 14 18 20 22 25 27 29 31 33 38 43 47 48 48
25 26 27 28 28 33 43 34 23 26 26 26 22 27 27 33 26 26 23 12 8 9 9 9 8 9 10 12 15 18 20 23 25 26 28 29 34 38 42 46 48 47 45